Location: Caltech
(34.1382°N, 118.1253°W)
Time: 05:49:48
(UTC-07:00)

FENGYUN 3A - Visible Passes

Search period start: 23 September 2017 00:00
Search period end: 03 October 2017 00:00
Orbit: 819 x 833 km, 98.4° (Epoch: 23 September)

Date Brightness Start Highest point End Pass type
(mag) Time Alt. Az. Time Alt. Az. Time Alt. Az.
23 Sep 3.6 19:23:24 10° SSE 19:28:42 70° ENE 19:34:02 10° N visible
23 Sep 6.6 21:07:40 10° WSW 21:09:22 11° W 21:11:04 10° WNW visible
24 Sep 4.0 19:04:47 10° SE 19:09:51 45° ENE 19:14:57 10° N visible
24 Sep 6.2 20:46:38 10° SW 20:50:16 18° W 20:53:54 10° NW visible
25 Sep 5.6 20:26:40 10° SSW 20:31:12 28° W 20:35:47 10° NW visible
26 Sep 4.8 20:07:09 10° S 20:12:13 43° W 20:17:18 10° NNW visible
27 Sep 4.0 19:47:56 10° S 19:53:15 67° WSW 19:58:36 10° NNW visible
28 Sep 3.6 19:29:00 10° SSE 19:34:20 81° ENE 19:39:44 10° N visible
29 Sep 3.8 19:10:19 10° SSE 19:15:29 53° ENE 19:20:42 10° N visible
29 Sep 6.4 20:52:49 10° SW 20:55:59 16° W 20:59:10 10° NW visible
30 Sep 5.8 20:32:37 10° SSW 20:36:55 24° W 20:41:14 10° NW visible
01 Oct 5.1 20:12:57 10° SSW 20:17:53 37° W 20:22:51 10° NNW visible
02 Oct 4.3 19:53:40 10° S 19:58:55 58° W 20:04:13 10° NNW visible
